Weather History for Dayton, OH

Change the Weather History Date:

Sunday, January 5, 2014

  Actual Average Record
Temperature  
Mean Temperature 30 °F 28 °F  
Max Temperature 37 °F 35 °F 62 °F (1939)
Min Temperature 23 °F 21 °F -15 °F (1904)
Degree Days  
Heating Degree Days 35 37  
Month to date heating degree days 215 185  
Since 1 July heating degree days 2334 2344  
Cooling Degree Days 0 0  
Month to date cooling degree days 0 0  
Year to date cooling degree days 0 0  
Moisture  
Dew Point 31 °F    
Average Humidity 81    
Maximum Humidity 100    
Minimum Humidity 61    
Precipitation  
Precipitation 0.93 in 0.09 in 2.58 in (2005)
Month to date precipitation 1.19 0.49  
Year to date precipitation 1.19 0.49  
Snow  
Snow 0.90 in 0.30 in 2.70 in (1903)
Month to date snowfall 6.1 1.2  
Since 1 July snowfall 20.7 6.7  
Snow Depth 2.00 in    
Sea Level Pressure  
Sea Level Pressure 29.75 in    
Wind  
Wind Speed 9 mph (ESE)    
Max Wind Speed 26 mph    
Max Gust Speed 38 mph    
Visibility 3 miles    
Events Fog , Rain , Snow    
T = Trace of Precipitation, MM = Missing Value Source: NWS Daily Summary

Daily Weather History Graph

Daily Weather History Graph

Search for Another Location

Airport:

Trip Planner

Search our weather history database for the weather conditions in past years. The results will help you decide how hot, cold, wet, or windy it might be!

Date:

Astronomy

Jan. 05, 2014 Rise Set
Actual Time 7:58 AM EST 5:26 PM EST
Civil Twilight 7:28 AM EST 5:56 PM EST
Nautical Twilight 6:54 AM EST 6:30 PM EST
Astronomical Twilight 6:21 AM EST 7:02 PM EST
Moon 10:40 AM EST (1/5) 10:52 PM EST (1/5)
Length of Visible Light 10h 27m
Length of Day
9h 27m
Waxing Crescent, 24% of the Moon is Illuminated
Jan 5
Waxing Crescent
Jan 7
First Quarter
Jan 15
Full
Jan 24
Last Quarter
Jan 30
New

Hourly Weather History & Observations

Time (EST) Temp. Windchill Dew Point Humidity Pressure Visibility Wind Dir Wind Speed Gust Speed Precip Events Conditions
12:56 AM 34.0 °F 28.0 °F 21.0 °F 59% 30.07 in 10.0 mi SSE 6.9 mph - N/A   Overcast
1:56 AM 34.0 °F 28.8 °F 21.9 °F 61% 30.06 in 10.0 mi SSE 5.8 mph - N/A   Overcast
2:56 AM 34.0 °F 29.8 °F 21.9 °F 61% 30.07 in 10.0 mi SSW 4.6 mph - N/A   Overcast
3:56 AM 33.1 °F 26.9 °F 27.0 °F 78% 30.07 in 8.0 mi WSW 6.9 mph - 0.00 in   Light Drizzle
4:56 AM 33.1 °F 27.7 °F 28.9 °F 85% 30.03 in 3.0 mi South 5.8 mph - 0.00 in Snow Light Snow
5:49 AM 33.8 °F 29.6 °F 28.4 °F 81% 30.00 in 9.0 mi SW 4.6 mph - 0.00 in   Overcast
5:56 AM 33.1 °F 30.0 °F 28.9 °F 85% 30.02 in 10.0 mi SSW 3.5 mph - 0.00 in   Overcast
6:56 AM 33.1 °F 27.7 °F 28.9 °F 85% 30.01 in 9.0 mi ESE 5.8 mph - N/A   Overcast
7:56 AM 34.0 °F 28.8 °F 25.0 °F 70% 30.01 in 10.0 mi SE 5.8 mph - N/A   Overcast
8:40 AM 33.8 °F 26.4 °F 26.6 °F 75% 29.97 in 3.0 mi SE 9.2 mph - 0.00 in Rain , Snow Light Rain
8:52 AM 33.8 °F 26.4 °F 26.6 °F 75% 29.97 in 3.0 mi SE 9.2 mph - 0.01 in   Light Drizzle
8:56 AM 33.1 °F 26.9 °F 28.0 °F 82% 30.00 in 3.0 mi SSE 6.9 mph - 0.01 in Snow Light Snow
9:44 AM 33.8 °F 26.4 °F 32.0 °F 93% 29.93 in 3.0 mi SSE 9.2 mph - 0.02 in Snow Light Snow
9:56 AM 34.0 °F 26.6 °F 32.0 °F 92% 29.95 in 3.0 mi SE 9.2 mph - 0.02 in Rain Light Rain
10:21 AM 33.8 °F 28.6 °F 32.0 °F 93% 29.91 in 6.0 mi ESE 5.8 mph - 0.00 in   Overcast
10:40 AM 35.6 °F 30.7 °F 32.0 °F 87% 29.89 in 4.0 mi East 5.8 mph - 0.00 in Rain Light Rain
10:56 AM 35.1 °F 32.2 °F 33.1 °F 92% 29.91 in 3.0 mi ENE 3.5 mph - 0.00 in Rain Light Rain
11:07 AM 33.8 °F 30.8 °F 33.8 °F 100% 29.87 in 2.5 mi ENE 3.5 mph - 0.01 in Rain Light Rain
11:18 AM 35.6 °F 32.8 °F 33.8 °F 93% 29.86 in 1.8 mi ENE 3.5 mph - 0.01 in Rain Light Rain
11:56 AM 35.1 °F 29.3 °F 34.0 °F 96% 29.84 in 1.0 mi East 6.9 mph - 0.02 in Rain Light Rain
12:56 PM 37.0 °F 28.9 °F 35.1 °F 93% 29.75 in 2.5 mi SE 12.7 mph - 0.01 in Rain Light Rain
1:03 PM 37.4 °F 29.8 °F 35.6 °F 93% 29.71 in 4.0 mi SE 11.5 mph - 0.00 in Rain Light Rain
1:25 PM 37.4 °F 30.3 °F 35.6 °F 93% 29.69 in 3.0 mi SE 10.4 mph - 0.02 in Rain Light Rain
1:56 PM 37.0 °F 31.0 °F 35.1 °F 93% 29.68 in 3.0 mi ESE 8.1 mph - 0.06 in Rain Rain
2:30 PM 37.4 °F 34.9 °F 35.6 °F 93% 29.66 in 2.0 mi ESE 3.5 mph - 0.08 in Rain Rain
2:50 PM 37.4 °F - 35.6 °F 93% 29.66 in 1.5 mi Calm Calm - 0.16 in Rain Rain
2:56 PM 37.0 °F - 36.0 °F 96% 29.68 in 1.5 mi Calm Calm - 0.17 in Rain Rain
3:45 PM 35.6 °F 28.6 °F 35.6 °F 100% 29.63 in 1.0 mi ESE 9.2 mph - 0.12 in Rain Light Rain
3:56 PM 37.0 °F 31.6 °F 36.0 °F 96% 29.66 in 1.8 mi ESE 6.9 mph - 0.13 in Rain Light Rain
4:19 PM 37.4 °F 33.8 °F 35.6 °F 93% 29.62 in 1.5 mi ESE 4.6 mph - 0.06 in Rain Rain
4:56 PM 37.0 °F 31.6 °F 36.0 °F 96% 29.60 in 1.2 mi ESE 6.9 mph - 0.15 in Rain Light Rain
5:42 PM 37.4 °F 32.1 °F 35.6 °F 93% 29.54 in 1.0 mi East 6.9 mph - 0.05 in Rain Light Rain
5:56 PM 37.0 °F 31.6 °F 36.0 °F 96% 29.55 in 0.8 mi East 6.9 mph - 0.07 in Rain Light Rain
6:31 PM 37.4 °F 33.8 °F 35.6 °F 93% 29.51 in 0.8 mi East 4.6 mph - 0.06 in Rain Rain
6:54 PM 35.6 °F - 35.6 °F 100% 29.51 in 0.5 mi Calm Calm - 0.10 in Fog , Rain Light Rain
6:56 PM 37.0 °F 34.5 °F 36.0 °F 96% 29.53 in 0.5 mi NW 3.5 mph - 0.10 in Fog , Rain Light Rain
7:06 PM 35.6 °F 28.6 °F 35.6 °F 100% 29.49 in 0.2 mi NNW 9.2 mph - 0.01 in Fog , Rain Light Rain
7:37 PM 35.6 °F 28.6 °F 35.6 °F 100% 29.49 in 3.0 mi NNW 9.2 mph - 0.09 in Rain Rain
7:52 PM 35.6 °F 27.5 °F 35.6 °F 100% 29.48 in 1.0 mi NW 11.5 mph - 0.10 in Rain Light Rain
7:56 PM 36.0 °F 28.5 °F 35.1 °F 97% 29.51 in 1.0 mi NW 10.4 mph - 0.11 in Rain Light Rain
8:12 PM 35.6 °F 26.2 °F 33.8 °F 93% 29.49 in 3.0 mi NW 15.0 mph - 0.01 in Snow Light Snow
8:36 PM 33.8 °F 23.2 °F 32.0 °F 93% 29.49 in 2.0 mi NW 17.3 mph - 0.03 in Snow Light Snow
8:49 PM 33.8 °F 22.5 °F 32.0 °F 93% 29.50 in 1.2 mi NW 19.6 mph 25.3 mph 0.04 in Snow Light Snow
8:56 PM 32.0 °F 20.5 °F 30.9 °F 96% 29.52 in 1.0 mi NW 18.4 mph - 0.05 in Snow Light Snow
9:25 PM 30.2 °F 17.1 °F 30.2 °F 100% 29.51 in 0.8 mi NNW 21.9 mph 31.1 mph 0.02 in Snow Light Snow
9:56 PM 27.0 °F 12.5 °F 25.0 °F 92% 29.55 in 0.8 mi NW 23.0 mph 29.9 mph 0.03 in Snow Light Snow
10:14 PM 26.6 °F 12.4 °F 21.2 °F 80% 29.55 in 0.8 mi NW 21.9 mph 31.1 mph 0.00 in Snow Light Snow
10:46 PM 24.8 °F 9.6 °F 21.2 °F 86% 29.59 in 1.8 mi NW 23.0 mph 29.9 mph 0.00 in Snow Light Snow
10:54 PM 24.8 °F 9.0 °F 21.2 °F 86% 29.60 in 3.0 mi WNW 25.3 mph 33.4 mph 0.00 in Snow Blowing Snow
10:56 PM 24.1 °F 8.7 °F 19.9 °F 84% 29.63 in 3.0 mi WNW 23.0 mph 33.4 mph 0.00 in Snow Blowing Snow
11:56 PM 23.0 °F 6.3 °F 19.0 °F 85% 29.68 in 4.0 mi NW 26.5 mph 34.5 mph N/A Snow Blowing Snow